Volver al catálogo

STARLINK-37873

ActivoComunicacionesSSO
NORAD 69484·PAYLOAD·🇺🇸 United States

Lanzado Jun 11, 2026 desde Vandenberg Space Force Base

Loading…

Próximos Pases (próximas 24 horas)

TLE

ActualizadoSource: CelesTrak SupGP

Época: Sep 14, 2026, 22:53 UTC

1 69484C 26131G   26257.95395833  .00039172  00000+0  12160-2 0  2571
2 69484  97.2835 278.8690 0001231  92.0943 333.9707 15.33418771    14

Sigue STARLINK-37873 en tiempo real con AllMySat

Download on the App Store